Location: Follega
(52.8850°N, 5.7362°E)
Time: 09:15:42
(UTC+00:00)

ERS-1 Rocket - Pass Details

Date: 01 June 2020
Orbit: 753 x 758 km, 98.5° (Epoch: 11 July)

Event Time Altitude Azimuth Distance (km) Brightness Sun altitude
Exits shadow 21:59:40 - 201° (SSW) 2,531 5.3 -12.1°
Reaches altitude 10° 22:00:24 10° 205° (SSW) 2,282 5.1 -12.1°
Maximum altitude 22:04:47 30° 266° (W) 1,346 4.5 -12.4°
Drops below altitude 10° 22:09:12 10° 327° (NNW) 2,299 6.9 -12.6°
Sets 22:11:48 0° 338° (NNW) 3,230 8.4 -12.8°
